Weather History for Newark Heath, OH

Change the Weather History Date:

Tuesday, May 14, 2013

  Actual Average Record
Temperature  
Mean Temperature 53 °F -  
Max Temperature 73 °F 74 °F 91 °F (1962)
Min Temperature 33 °F 48 °F 31 °F (1939)
Degree Days  
Heating Degree Days 12    
Growing Degree Days 3 (Base 50)    
Moisture  
Dew Point 42 °F    
Average Humidity 66    
Maximum Humidity 96    
Minimum Humidity 37    
Precipitation  
Precipitation 0.00 in - - ()
Sea Level Pressure  
Sea Level Pressure 30.01 in    
Wind  
Wind Speed 3 mph (SSW)    
Max Wind Speed 15 mph    
Max Gust Speed 22 mph    
Visibility 9 miles    
Events      
Averages and records for this station are not official NWS values.
T = Trace of Precipitation, MM = Missing Value Source: NWS Daily Summary

Daily Weather History Graph

Daily Weather History Graph

Search for Another Location

Airport:

Trip Planner

Search our weather history database for the weather conditions in past years. The results will help you decide how hot, cold, wet, or windy it might be!

Date:

Astronomy

May. 14, 2013 Rise Set
Actual Time 6:15 AM EDT 8:37 PM EDT
Civil Twilight 5:44 AM EDT 9:08 PM EDT
Nautical Twilight 5:06 AM EDT 9:46 PM EDT
Astronomical Twilight 4:25 AM EDT 10:28 PM EDT
Moon 9:53 AM EDT (5/14) No Moon Set
Length of Visible Light 15h 23m
Length of Day
14h 22m
Waxing Crescent, 19% of the Moon is Illuminated
May 14
Waxing Crescent
May 18
First Quarter
May 25
Full
May 31
Last Quarter
Jun 8
New

Hourly Weather History & Observations

Time (EDT) Temp. Dew Point Humidity Pressure Visibility Wind Dir Wind Speed Gust Speed Precip Events Conditions
12:54 AM 37.0 °F 34.0 °F 89% 30.17 in 10.0 mi Calm Calm - N/A   Clear
1:54 AM 35.1 °F 33.1 °F 92% 30.17 in 9.0 mi Calm Calm - N/A   Clear
2:54 AM 33.1 °F 32.0 °F 96% 30.16 in 7.0 mi Calm Calm - N/A   Clear
3:54 AM 33.1 °F 32.0 °F 96% 30.15 in 4.0 mi Calm Calm - N/A   Clear
4:54 AM 35.1 °F 33.1 °F 92% 30.14 in 6.0 mi Calm Calm - N/A   Clear
5:54 AM 36.0 °F 34.0 °F 93% 30.13 in 6.0 mi Calm Calm - N/A   Clear
6:54 AM 37.0 °F 35.1 °F 93% 30.15 in 7.0 mi Calm Calm - N/A   Overcast
7:54 AM 39.9 °F 37.0 °F 89% 30.16 in 10.0 mi Calm Calm - N/A   Overcast
8:54 AM 43.0 °F 39.9 °F 89% 30.14 in 10.0 mi Calm Calm - N/A   Overcast
9:54 AM 48.0 °F 42.1 °F 80% 30.13 in 10.0 mi Calm Calm - N/A   Overcast
10:54 AM 54.0 °F 39.0 °F 57% 30.09 in 10.0 mi SSW 10.4 mph - N/A   Overcast
11:54 AM 61.0 °F 39.9 °F 46% 30.06 in 10.0 mi SSW 11.5 mph - N/A   Mostly Cloudy
12:54 PM 64.9 °F 39.9 °F 40% 30.01 in 10.0 mi South 15.0 mph 21.9 mph N/A   Clear
1:54 PM 66.0 °F 39.0 °F 37% 29.97 in 10.0 mi South 13.8 mph 21.9 mph N/A   Partly Cloudy
2:54 PM 68.0 °F 45.0 °F 43% 29.95 in 10.0 mi SSW 10.4 mph 19.6 mph N/A   Mostly Cloudy
3:54 PM 69.1 °F 46.9 °F 45% 29.91 in 10.0 mi South 8.1 mph 19.6 mph N/A   Mostly Cloudy
4:54 PM 72.0 °F 46.9 °F 41% 29.88 in 10.0 mi South 11.5 mph 18.4 mph N/A   Mostly Cloudy
5:54 PM 73.0 °F 48.0 °F 41% 29.87 in 10.0 mi SSE 11.5 mph - N/A   Partly Cloudy
6:54 PM 73.0 °F 50.0 °F 44% 29.87 in 10.0 mi SSW 8.1 mph - N/A   Clear
7:54 PM 71.1 °F 52.0 °F 51% 29.86 in 10.0 mi SSW 8.1 mph - N/A   Clear
8:54 PM 68.0 °F 52.0 °F 56% 29.83 in 10.0 mi South 3.5 mph - N/A   Clear
9:54 PM 66.9 °F 52.0 °F 59% 29.84 in 10.0 mi South 3.5 mph - N/A   Clear
10:54 PM 66.0 °F 52.0 °F 60% 29.83 in 10.0 mi South 4.6 mph - N/A   Clear
11:54 PM 66.0 °F 53.1 °F 63% 29.83 in 10.0 mi SW 4.6 mph - N/A   Clear